Regional Weather Roundup
Issued by NWS Sterling, VA

Home | Current Version | Previous Version | Text Only | Print | Product List | Glossary Off
Versions: 1 2 3 4 5 6 7 8 9 10 11 12 13 14 15 16 17 18 19 20 21 22 23 24 25 26

733
ASUS41 KLWX 211510
RWRLWX

REGIONAL WEATHER ROUNDUP
NATIONAL WEATHER SERVICE BALTIMORE MD/WASHINGTON DC
1100 AM EDT THU MAY 21 2015

Note: "FAIR" indicates few or no clouds below 12,000 feet
with no significant weather and/or obstructions to visibility.
 TC=TEMPERATURE CELSIUS

 * =Non NWS site. Station does not report precipitation (e.g. rain,
    snow, etc.), thunder, or fog.

DCZ001-MDZ009-015-VAZ040>042-051-053>054-211600-
WASHINGTON METRO

CITY           SKY/WX    TMP DP  RH WIND       PRES   REMARKS
WASHINGTON NAT LGT RAIN  54  46  76 NE10      30.03F
DULLES         RAIN      52  50  93 CALM      30.02S FOG
ANDREWS AFB    LGT RAIN  52  50  93 N7        30.01F FOG
FT BELVOIR     CLOUDY    53  51  92 VRB2      30.02S
QUANTICO       CLOUDY    57  49  74 E12       30.01F
COLLEGE PARK*  CLOUDY    54  46  76 E3        30.04R
LEESBURG*      RAIN      54  52  94 NE5       30.03S
MANASSAS*      CLOUDY    54  52  94 E3        30.02S
GAITHERSBURG*  CLOUDY    50  45  81 E3        30.07R

$$

MDZ006>007-011-014-211600-
BALTIMORE METRO

CITY           SKY/WX    TMP DP  RH WIND       PRES   REMARKS
BWI AIRPORT    LGT RAIN  53  41  63 E5        30.04R
MD SCIENCE CTR   N/A     54  41  61 MISG      30.05R
MARTIN STATE   RAIN      55  48  76 CALM      30.05R
ANNAPOLIS      LGT RAIN  55  44  66 E3        30.03R
FORT MEADE*    CLOUDY    52  46  82 N3        30.06S

$$

MDZ012-015-019>023-211600-
MARYLAND EASTERN SHORE

CITY           SKY/WX    TMP DP  RH WIND       PRES   REMARKS
OCEAN CITY     LGT RAIN  58  50  75 E6        30.00R
SALISBURY      LGT RAIN  55  51  86 E8        29.98F FOG
BAY BRIDGE AP* LGT RAIN N/A N/A N/A CALM      30.03R
CAMBRIDGE*       N/A     54  50  87 N5        30.02R
EASTON*        LGT RAIN  55  50  82 CALM      30.05S FOG

$$

MDZ017>025-211600-
SOUTHERN MARYLAND

CITY           SKY/WX    TMP DP  RH WIND       PRES   REMARKS
PATUXENT RIVER LGT RAIN  55  50  83 NE12      30.00R FOG
ST INIGOES     RAIN      56  53  90 NE7       29.98R FOG
LEONARDTOWN*   CLOUDY    52  50  93 CALM      30.02R

$$

MDZ003>005-211600-
NORTH CENTRAL MARYLAND

CITY           SKY/WX    TMP DP  RH WIND       PRES   REMARKS
FREDERICK*     NOT AVBL
HAGERSTOWN APT CLOUDY    52  46  80 E5        30.02S
WESTMINSTER*   LGT RAIN  52  41  66 E5        30.03R

$$

MDZ501>502-211600-
WESTERN MARYLAND

CITY           SKY/WX    TMP DP  RH WIND       PRES   REMARKS
OAKLAND*       CLOUDY    43 N/A N/A SE10      29.97S FOG
CUMBERLAND*    CLOUDY    50  46  87 CALM      30.05S

$$

VAZ025>031-211600-
SHENANDOAH VALLEY

CITY           SKY/WX    TMP DP  RH WIND       PRES   REMARKS
WINCHESTER*    DRIZZLE   52  46  82 E3        30.01F
FRONT ROYAL*   CLOUDY    50  50 100 NE5       30.00S
LURAY*         LGT RAIN  54  54 100 N5        29.99S
NEW MARKET*    CLOUDY    50  49  95 N3        29.99S
STAUNTON*      DRIZZLE   52  50  92 N6        30.00S
WAYNESBORO*    CLOUDY    50  48  93 E3        29.98S

$$

WVZ021-048>050-054>055-211600-
EASTERN WEST VIRGINIA PANHANDLE

CITY           SKY/WX    TMP DP  RH WIND       PRES   REMARKS
MARTINSBURG    LGT RAIN  53  48  83 N7        30.02F
PETERSBURG*    CLOUDY    50  46  86 N6        30.00S FOG

$$

VAZ036>039-050-211600-
CENTRAL FOOTHILLS

CITY           SKY/WX    TMP DP  RH WIND       PRES   REMARKS
CHARLOTTESVILL RAIN      53  50  89 NE9       29.98S FOG
CULPEPER*      LGT RAIN  52  49  91 NE3       30.01S
ORANGE*        DRIZZLE   55  52  88 N6        30.00S
GORDONSVILLE*  CLOUDY    53  51  94 NE5       29.98S FOG
WARRENTON*     CLOUDY    54  53  97 N7        30.00S

$$

VAZ055>057-211600-
NORTH AND CENTRAL PIEDMONT

CITY           SKY/WX    TMP DP  RH WIND       PRES   REMARKS
FREDERICKSBRG* CLOUDY    57  57  98 NE6       29.99S
STAFFORD*      CLOUDY    55  51  88 NE7       30.04S

$$

NCZ024-NYZ072-PAZ021-071-VAZ022-071-211600-
OTHER REGIONAL OBSERVATIONS

CITY           SKY/WX    TMP DP  RH WIND       PRES   REMARKS
NEW YORK CITY  CLOUDY    60  36  40 VRB3      30.02S
PHILADELPHIA   LGT RAIN  57  40  52 CALM      30.03S
PITTSBURGH     CLOUDY    53  42  66 NE7       29.97F
ROANOKE        LGT RAIN  54  53  97 W3        29.97F FOG
RICHMOND       RAIN      57  55  93 NE8       29.95F FOG
RALEIGH        LGT RAIN  68  60  75 SE6       29.86F

$$

ANZ530>537-211600-
MARINE OBSERVATIONS

STATION/POSITION TIME  TEMP    WIND        PRES
                       AIR SEA DIR/SP/G
                 (UTC) (F)     (DEG/KT/KT) (MB)
THOMAS PT LIGHT  1500   53 66  100/  4/  5 1017.7R
BALT KEY BRIDGE  1400   56      70/  8/ 10 1016.5R
COVE POINT       1400   55     110/ 14/ 16 1015.9F
LEWISETTA        1400   61 71              1014.2F
PINEY POINT      1400          100/  8/ 10   N/A

$$




USA.gov is the U.S. government's official web portal to all federal, state and local government web resources and services.